Terminal Aerodrome Forecast
Issued by NWS

Home | Current Version | Previous Version | Text Only | Print | Product List | Glossary On
Versions: 1 2 3 4 5 6 7 8 9 10 11 12 13 14 15 16 17 18 19 20 21 22 23 24 25 26 27 28 29 30 31 32 33 34 35
221
FTAK31 PAFA 112329
TAFASC
TAF
PASC 112329Z 1200/1224 22007KT P6SM OVC021
     FM121000 10012KT 1 1/2SM BR VCSH OVC009
     FM122200 08017G29KT 1/2SM BLSN OVC007=

USA.gov is the U.S. government's official web portal to all federal, state and local government web resources and services.